Ozark, AL

4:46 AM CDT on September 21, 2017 (GMT -0500)
Cairns Army Air Field

Weather History for KOZR - March, 2012

Change the Weather History Date:

Wednesday, March 21, 2012

  Actual Average Record
Temperature  
Mean Temperature 72 °F -  
Max Temperature 84 °F 68 °F 84 °F (2012)
Min Temperature 62 °F 46 °F 35 °F (2016)
Cooling Degree Days 8    
Growing Degree Days 22 (Base 50)    
Moisture  
Dew Point 59 °F    
Average Humidity 66    
Maximum Humidity 88    
Minimum Humidity 41    
Precipitation  
Precipitation 0.00 in - - ()
Sea Level Pressure  
Sea Level Pressure 30.08 in    
Wind  
Wind Speed 6 mph (ESE)    
Max Wind Speed 14 mph    
Max Gust Speed 22 mph    
Visibility 10 miles    
Events      
Averages and records for this station are not official NWS values.
T = Trace of Precipitation, MM = Missing Value Source: NWS Daily Summary

Daily Weather History Graph

Daily Weather History Graph

Search for Another Location

Airport or City:

Trip Planner

Search our weather history database for the weather conditions in past years. The results will help you decide how hot, cold, wet, or windy it might be!

Date:

Astronomy

Mar. 21, 2012 Rise Set
Actual Time 6:44 AM CDT 6:55 PM CDT
Civil Twilight 6:20 AM CDT 7:19 PM CDT
Nautical Twilight 5:52 AM CDT 7:47 PM CDT
Astronomical Twilight 5:23 AM CDT 8:16 PM CDT
Moon 5:54 AM CDT 6:20 PM CDT
Length of Visible Light 12h 59m
Length of Day
12h 10m
Waning Crescent, 1% of the Moon is Illuminated
Mar 21
Waning Crescent
Mar 22
New
Mar 30
First Quarter
Apr 6
Full
Apr 13
Last Quarter

Hourly Weather History & Observations

Time (CDT) Temp. Heat Index Dew Point Humidity Pressure Visibility Wind Dir Wind Speed Gust Speed Precip Events Conditions
12:55 AM 62.8 °F - 54.9 °F 75% 30.07 in 10.0 mi ENE 4.6 mph - N/A   Clear
1:55 AM 62.6 °F - 55.4 °F 77% 30.07 in 10.0 mi ENE 4.6 mph - N/A   Clear
2:55 AM 62.4 °F - 56.1 °F 80% 30.06 in 10.0 mi ENE 4.6 mph - N/A   Clear
3:55 AM 64.6 °F - 58.6 °F 81% 30.06 in 10.0 mi East 6.9 mph - N/A   Clear
4:55 AM 64.9 °F - 59.7 °F 83% 30.07 in 10.0 mi East 5.8 mph - N/A   Clear
5:55 AM 64.0 °F - 60.1 °F 87% 30.08 in 10.0 mi Variable 3.5 mph - N/A   Clear
6:55 AM 64.4 °F - 60.8 °F 88% 30.09 in 10.0 mi East 3.5 mph - N/A   Clear
7:54 AM 66.2 °F - 62.6 °F 88% 30.11 in 10.0 mi ESE 4.6 mph - N/A   Mostly Cloudy
7:55 AM 66.7 °F - 62.2 °F 85% 30.11 in 10.0 mi Variable 5.8 mph - N/A   Mostly Cloudy
8:26 AM 68.0 °F - 62.6 °F 83% 30.11 in 10.0 mi SE 9.2 mph - N/A   Scattered Clouds
8:55 AM 71.1 °F - 63.3 °F 76% 30.11 in 10.0 mi SE 8.1 mph - N/A   Clear
9:55 AM 74.1 °F - 63.3 °F 69% 30.12 in 10.0 mi SSE 11.5 mph - N/A   Clear
10:55 AM 77.9 °F - 61.7 °F 57% 30.12 in 10.0 mi SSE 12.7 mph 18.4 mph N/A   Partly Cloudy
11:55 AM 80.2 °F 81.1 °F 60.8 °F 51% 30.11 in 10.0 mi SE 8.1 mph - N/A   Partly Cloudy
12:55 PM 82.9 °F 83.0 °F 59.5 °F 45% 30.08 in 10.0 mi SSE 13.8 mph 21.9 mph N/A   Scattered Clouds
1:55 PM 82.6 °F 82.3 °F 58.3 °F 43% 30.06 in 10.0 mi SE 11.5 mph 21.9 mph N/A   Partly Cloudy
2:55 PM 83.7 °F 83.6 °F 59.4 °F 44% 30.04 in 10.0 mi ESE 8.1 mph - N/A   Scattered Clouds
3:55 PM 81.7 °F 81.9 °F 58.8 °F 46% 30.05 in 10.0 mi SSE 12.7 mph - N/A   Partly Cloudy
4:55 PM 83.5 °F 82.9 °F 57.7 °F 41% 30.04 in 10.0 mi ESE 11.5 mph - N/A   Partly Cloudy
5:55 PM 81.0 °F 80.8 °F 55.9 °F 42% 30.04 in 10.0 mi SE 11.5 mph 21.9 mph N/A   Clear
6:55 PM 76.5 °F - 55.2 °F 48% 30.05 in 10.0 mi SE 5.8 mph - N/A   Clear
7:55 PM 72.9 °F - 54.9 °F 53% 30.06 in 10.0 mi SE 3.5 mph - N/A   Clear
8:55 PM 70.0 °F - 55.2 °F 59% 30.07 in 10.0 mi Calm Calm - N/A   Clear
9:55 PM 68.4 °F - 55.8 °F 64% 30.12 in 10.0 mi Calm Calm - N/A   Clear
10:55 PM 66.6 °F - 56.7 °F 70% 30.11 in 10.0 mi ESE 3.5 mph - N/A   Clear
11:55 PM 64.8 °F - 57.4 °F 77% 30.12 in 10.0 mi Calm Calm - N/A   Clear